Current weather by "City, St" or "zip code"  
 

Current Conditions: Sarasota / Bradenton, Sarasota-Bradenton International Airport, FL

Mostly Cloudy


66.0 F

Last Updated on Oct 31 2020, 4:53 am EDT
Humidity: 81%
Wind Speed: NE 8.1 mph
Barometer 30.03 in
Dewpoint: 60.1 F
Visibility: 10.00 mi
Precip: --
Heat Index: NA
Wind Chill: NA
Current conditions at:

Sarasota / Bradenton, Sarasota-Bradenton International Airport, FL (KSRQ)

Lat: 27.40139 Lon: 82.55861

Local Radar Image active severe weather and emergency alerts image image weather storm and storm spotter reports image weather observation monitoring service image
Local
Radar
Active
Alerts
Storm Reports Obs
Monitoring

Sign-up For Email & Text Message Weather Alert Notification Services



Advertise Here

Observation History for Sarasota / Bradenton, Sarasota-Bradenton International Airport, FL


Time Wind
(mph)
Vis
(mi)
Weather Precip (in) Temperature (F) Relative
Humidity
Wind
Chill
(F)
Heat
Index
(F)
Pressure
Air Dwpt altimeter
(in)
sea level
(mb)
Rmks
4:53 am EDT NE 8.1 10.00 Mostly Cloudy -- 66.0 60.1 81% NA NA 30.03 1016.9
3:53 am EDT NE 6.9 10.00 A Few Clouds -- 66.0 60.1 81% NA NA 30.04 1017.1
2:53 am EDT NE 8.1 10.00 Partly Cloudy -- 66.0 59.0 78% NA NA 30.05 1017.5
1:53 am EDT NE 6.9 10.00 Mostly Cloudy -- 66.0 59.0 78% NA NA 30.05 1017.5
12:53 am EDT NE 8.1 10.00 Fair -- 66.0 57.0 73% NA NA 30.06 1017.7
11:53 pm EDT NE 6.9 10.00 Fair -- 67.0 59.0 76% NA NA 30.05 1017.5
10:53 pm EDT NE 6.9 10.00 Fair -- 68.0 59.0 73% NA NA 30.04 1017.3
9:53 pm EDT N 5.8 10.00 Fair -- 68.0 59.0 73% NA NA 30.03 1016.9
8:53 pm EDT N 4.6 10.00 Fair -- 69.0 57.0 66% NA NA 30.01 1016.3
7:53 pm EDT N 5.8 10.00 Fair -- 69.0 57.9 68% NA NA 30.00 1015.7
6:53 pm EDT NW 6.9 10.00 Fair -- 71.0 57.9 63% NA NA 29.99 1015.3
5:53 pm EDT NW 6.9 10.00 Fair -- 75.0 57.9 55% NA NA 29.97 1014.7
4:53 pm EDT NW 11.5 10.00 Fair -- 77.0 60.1 56% NA NA 29.96 1014.4
3:53 pm EDT N 8.1 10.00 Fair -- 78.0 61.0 56% NA NA 29.96 1014.5
2:53 pm EDT N 9.2 10.00 A Few Clouds -- 78.0 62.1 58% NA NA 29.97 1014.6
1:53 pm EDT N 9.2 10.00 Fair -- 79.0 63.0 58% NA NA 29.97 1014.8
12:53 pm EDT N 9.2 10.00 Fair -- 78.0 64.0 62% NA NA 29.99 1015.3
11:53 am EDT N 11.5 10.00 Fair -- 77.0 63.0 62% NA NA 30.00 1015.8
10:53 am EDT N 15.0 G 20.7 10.00 A Few Clouds -- 77.0 64.0 64% NA NA 29.99 1015.5
9:53 am EDT N 12.7 G 17.3 10.00 Fair -- 76.0 64.0 67% NA NA 29.98 1015.3
8:53 am EDT N 9.2 10.00 Fair -- 75.0 66.0 74% NA NA 29.97 1014.6
7:53 am EDT N 4.6 10.00 Mostly Cloudy -- 73.0 68.0 84% NA NA 29.95 1014.1
6:53 am EDT N 0.0 10.00 Mostly Cloudy -- 74.0 70.0 88% NA NA 29.94 1013.7
5:53 am EDT E 3.5 10.00 Fair -- 73.0 69.1 87% NA NA 29.92 1013.2

Regional Weather Observation


St. Petersburg/Clearwater Airport, FL (KPIE)

Fair
66.0 F

Macdill Air Force Base, Fl., FL (KMCF)

Fair
62.0 F

Sarasota / Bradenton, Sarasota-Bradenton International Airport, FL (KSRQ)

Mostly Cloudy
66.0 F

Tampa, Tampa International Airport, FL (KTPA)

Fair
63.0 F

Tampa, Peter O Knight Airport, FL (KTPF)

Fair
63.0 F

Venice Municipal Airport, FL (KVNC)

Overcast
68.0 F